When you browse on this site, cookies collect data to enhance your experience and personalize the content and advertising you see.
Visit our Privacy Policy to learn more. By continuing to use the site, you agree to this use of cookies and data.
  • în România
  • Lista ţărilor
  • Pe 7 zile
  • Temperatura apei
  • Hartă satelitară
  • Meteo pe hartă
  • Widget-uri
  • user-avatar
    Intrare

    Meteo pe oră la Podgory

    Astăzi, 21 Mai, Marţi

    Timp Temperatura Precipitaţii Vânt Presiune Umiditate
    00:00 +5°C° 0 mm 2 m/s 761 mmHg 74%
    01:00 +5°C° 0 mm 2 m/s 761 mmHg 76%
    02:00 +5°C° 0 mm 2 m/s 761 mmHg 77%
    03:00 +5°C° 0 mm 2 m/s 761 mmHg 84%
    04:00 +6°C° 0 mm 2 m/s 761 mmHg 80%
    05:00 +7°C° 0 mm 3 m/s 761 mmHg 77%
    06:00 +8°C° 0 mm 3 m/s 762 mmHg 74%
    07:00 +8°C° 0 mm 4 m/s 761 mmHg 65%
    08:00 +11°C° 0 mm 4 m/s 761 mmHg 57%
    09:00 +13°C° 0 mm 5 m/s 761 mmHg 49%
    10:00 +13°C° 0 mm 5 m/s 761 mmHg 47%
    11:00 +14°C° 0 mm 5 m/s 761 mmHg 45%
    12:00 +14°C° 0 mm 5 m/s 761 mmHg 43%
    13:00 +15°C° 0 mm 5 m/s 761 mmHg 42%
    14:00 +15°C° 0 mm 5 m/s 761 mmHg 42%
    15:00 +15°C° 0 mm 5 m/s 761 mmHg 41%
    16:00 +15°C° 0 mm 4 m/s 761 mmHg 45%
    17:00 +14°C° 0 mm 3 m/s 761 mmHg 49%
    18:00 +14°C° 0 mm 3 m/s 761 mmHg 53%
    19:00 +14°C° 0 mm 2 m/s 761 mmHg 56%
    20:00 +12°C° 0 mm 2 m/s 761 mmHg 59%
    21:00 +10°C° 0 mm 2 m/s 761 mmHg 62%
    22:00 +9°C° 0 mm 2 m/s 761 mmHg 63%
    23:00 +9°C° 0 mm 2 m/s 761 mmHg 65%

    Mâine, 22 Mai, Miercuri

    Timp Temperatura Precipitaţii Vânt Presiune Umiditate
    00:00 +9°C° 0 mm 2 m/s 761 mmHg 66%
    01:00 +8°C° 0 mm 2 m/s 761 mmHg 67%
    02:00 +8°C° 0 mm 2 m/s 761 mmHg 68%
    03:00 +8°C° 0 mm 2 m/s 761 mmHg 69%
    04:00 +9°C° 0 mm 2 m/s 761 mmHg 68%
    05:00 +10°C° 0 mm 2 m/s 760 mmHg 67%
    06:00 +12°C° 0 mm 1 m/s 760 mmHg 67%
    07:00 +12°C° 0.7 mm 1 m/s 760 mmHg 71%
    08:00 +12°C° 0.7 mm 1 m/s 760 mmHg 75%
    09:00 +11°C° 0.7 mm 0 m/s 759 mmHg 79%
    10:00 +11°C° 1.8 mm 1 m/s 759 mmHg 83%
    11:00 +10°C° 1.8 mm 2 m/s 759 mmHg 87%
    12:00 +10°C° 1.8 mm 2 m/s 759 mmHg 91%
    13:00 +13°C° 0.2 mm 2 m/s 758 mmHg 87%
    14:00 +14°C° 0.2 mm 2 m/s 758 mmHg 82%
    15:00 +16°C° 0.2 mm 2 m/s 757 mmHg 78%
    16:00 +15°C° 0.7 mm 2 m/s 757 mmHg 82%
    17:00 +15°C° 0.7 mm 2 m/s 757 mmHg 87%
    18:00 +15°C° 0.7 mm 2 m/s 756 mmHg 91%
    19:00 +14°C° 0.3 mm 2 m/s 756 mmHg 92%
    20:00 +14°C° 0.3 mm 2 m/s 756 mmHg 93%
    21:00 +14°C° 0.3 mm 2 m/s 756 mmHg 94%
    22:00 +14°C° 0 mm 2 m/s 756 mmHg 92%
    23:00 +13°C° 0 mm 2 m/s 756 mmHg 91%

    Poimâine, 23 Mai, Joi

    Timp Temperatura Precipitaţii Vânt Presiune Umiditate
    00:00 +12°C° 0 mm 3 m/s 755 mmHg 90%
    01:00 +12°C° 0 mm 3 m/s 755 mmHg 90%
    02:00 +12°C° 0 mm 3 m/s 755 mmHg 90%
    03:00 +12°C° 0 mm 4 m/s 755 mmHg 90%
    04:00 +13°C° 0 mm 4 m/s 754 mmHg 86%
    05:00 +13°C° 0 mm 4 m/s 754 mmHg 83%
    06:00 +14°C° 0 mm 4 m/s 754 mmHg 79%
    07:00 +15°C° 0 mm 5 m/s 754 mmHg 72%
    08:00 +17°C° 0 mm 5 m/s 754 mmHg 64%
    09:00 +19°C° 0 mm 6 m/s 753 mmHg 57%
    10:00 +20°C° 0 mm 6 m/s 753 mmHg 53%
    11:00 +21°C° 0 mm 7 m/s 753 mmHg 48%
    12:00 +22°C° 0 mm 7 m/s 752 mmHg 44%
    13:00 +22°C° 0 mm 7 m/s 752 mmHg 44%
    14:00 +22°C° 0 mm 7 m/s 752 mmHg 44%
    15:00 +22°C° 0 mm 7 m/s 751 mmHg 44%
    16:00 +21°C° 0 mm 6 m/s 751 mmHg 48%
    17:00 +21°C° 0 mm 5 m/s 750 mmHg 51%
    18:00 +20°C° 0 mm 5 m/s 750 mmHg 55%
    19:00 +19°C° 0 mm 5 m/s 750 mmHg 60%
    20:00 +16°C° 0 mm 5 m/s 750 mmHg 65%
    21:00 +15°C° 0 mm 5 m/s 749 mmHg 69%
    22:00 +15°C° 0 mm 5 m/s 749 mmHg 75%
    23:00 +15°C° 0 mm 5 m/s 749 mmHg 80%

    24 Mai, Vineri

    Timp Temperatura Precipitaţii Vânt Presiune Umiditate
    00:00 +14°C° 0 mm 5 m/s 749 mmHg 86%
    01:00 +14°C° 1.2 mm 4 m/s 749 mmHg 88%
    02:00 +14°C° 1.2 mm 4 m/s 749 mmHg 91%
    03:00 +14°C° 1.2 mm 4 m/s 749 mmHg 94%
    04:00 +12°C° 0.9 mm 4 m/s 750 mmHg 91%
    05:00 +10°C° 0.9 mm 5 m/s 750 mmHg 89%
    06:00 +9°C° 0.9 mm 6 m/s 751 mmHg 86%
    07:00 +10°C° 0 mm 6 m/s 751 mmHg 78%
    08:00 +11°C° 0 mm 6 m/s 752 mmHg 70%
    09:00 +11°C° 0 mm 6 m/s 753 mmHg 61%
    10:00 +13°C° 0 mm 6 m/s 753 mmHg 58%
    11:00 +14°C° 0 mm 6 m/s 753 mmHg 55%
    12:00 +14°C° 0 mm 6 m/s 754 mmHg 52%
    13:00 +14°C° 0 mm 5 m/s 754 mmHg 52%
    14:00 +14°C° 0 mm 5 m/s 755 mmHg 52%
    15:00 +14°C° 0 mm 5 m/s 755 mmHg 52%
    16:00 +14°C° 0 mm 5 m/s 755 mmHg 55%
    17:00 +13°C° 0 mm 4 m/s 756 mmHg 57%
    18:00 +13°C° 0 mm 4 m/s 756 mmHg 60%
    19:00 +11°C° 0 mm 3 m/s 757 mmHg 62%
    20:00 +10°C° 0 mm 3 m/s 757 mmHg 64%
    21:00 +9°C° 0 mm 2 m/s 758 mmHg 66%
    22:00 +8°C° 0 mm 2 m/s 758 mmHg 67%
    23:00 +7°C° 0 mm 2 m/s 759 mmHg 67%

    25 Mai, Sâmbătă

    Timp Temperatura Precipitaţii Vânt Presiune Umiditate
    00:00 +8°C° 0 mm 1 m/s 759 mmHg 68%
    01:00 +8°C° 0 mm 1 m/s 759 mmHg 69%
    02:00 +7°C° 0 mm 1 m/s 760 mmHg 69%
    03:00 +7°C° 0 mm 1 m/s 760 mmHg 70%
    04:00 +8°C° 0 mm 1 m/s 760 mmHg 67%
    05:00 +9°C° 0 mm 1 m/s 761 mmHg 64%
    06:00 +9°C° 0 mm 0 m/s 761 mmHg 61%
    07:00 +12°C° 0 mm 1 m/s 761 mmHg 55%
    08:00 +13°C° 0 mm 1 m/s 761 mmHg 49%
    09:00 +14°C° 0 mm 1 m/s 761 mmHg 43%
    10:00 +15°C° 0 mm 1 m/s 761 mmHg 42%
    11:00 +16°C° 0 mm 1 m/s 761 mmHg 40%
    12:00 +17°C° 0 mm 2 m/s 761 mmHg 39%
    13:00 +17°C° 0 mm 2 m/s 761 mmHg 39%
    14:00 +17°C° 0 mm 2 m/s 760 mmHg 38%
    15:00 +17°C° 0 mm 2 m/s 760 mmHg 38%
    16:00 +17°C° 0 mm 2 m/s 760 mmHg 43%
    17:00 +17°C° 0 mm 2 m/s 760 mmHg 47%
    18:00 +16°C° 0 mm 2 m/s 759 mmHg 51%
    19:00 +14°C° 0 mm 3 m/s 760 mmHg 54%
    20:00 +12°C° 0 mm 3 m/s 760 mmHg 56%
    21:00 +11°C° 0 mm 3 m/s 760 mmHg 58%
    22:00 +10°C° 0 mm 3 m/s 760 mmHg 59%
    23:00 +10°C° 0 mm 3 m/s 759 mmHg 61%

    26 Mai, Duminică

    Timp Temperatura Precipitaţii Vânt Presiune Umiditate
    00:00 +9°C° 0 mm 3 m/s 759 mmHg 62%
    01:00 +8°C° 0 mm 4 m/s 759 mmHg 63%
    02:00 +8°C° 0 mm 4 m/s 759 mmHg 64%
    03:00 +8°C° 0 mm 4 m/s 759 mmHg 65%
    04:00 +10°C° 0 mm 4 m/s 759 mmHg 64%
    05:00 +9°C° 0 mm 5 m/s 759 mmHg 63%
    06:00 +10°C° 0 mm 5 m/s 758 mmHg 63%
    07:00 +13°C° 0 mm 6 m/s 758 mmHg 59%
    08:00 +14°C° 0 mm 6 m/s 758 mmHg 56%
    09:00 +16°C° 0 mm 7 m/s 757 mmHg 53%
    10:00 +17°C° 0 mm 7 m/s 757 mmHg 51%
    11:00 +18°C° 0 mm 7 m/s 756 mmHg 50%
    12:00 +20°C° 0 mm 7 m/s 756 mmHg 48%
    13:00 +18°C° 0.1 mm 7 m/s 756 mmHg 53%
    14:00 +17°C° 0.1 mm 6 m/s 755 mmHg 59%
    15:00 +17°C° 0.1 mm 6 m/s 755 mmHg 64%
    16:00 +16°C° 0 mm 6 m/s 754 mmHg 65%
    17:00 +16°C° 0 mm 6 m/s 753 mmHg 66%
    18:00 +16°C° 0 mm 6 m/s 753 mmHg 67%
    19:00 +15°C° 0.1 mm 6 m/s 752 mmHg 68%
    20:00 +15°C° 0.1 mm 6 m/s 752 mmHg 69%
    21:00 +15°C° 0.1 mm 6 m/s 751 mmHg 70%
    22:00 +15°C° 0.4 mm 6 m/s 751 mmHg 73%
    23:00 +15°C° 0.4 mm 6 m/s 750 mmHg 77%
    Arată mai mult